Fort Covington, New York, United States (12937)
Lat: 44.99N, Lon: 74.5W
Wx Zone: NYZ027
Local Info
Past Weather Observations for Friday, May 1, 2015

NOTE: This archive is for the closest National Weather Service station to Fort Covington. Information may differ from the station used for current weather conditions.

Click here for Long-term Archive

Time Weather Temperature Dewpoint Humidity Pressure Winds Precip Visibility
23:53
Clear
45°F / 7°C 41°F / 5°C 87% 29.95 in
(1014 mb)
Calm - 10SM
22:53
Partly Cloudy
46°F / 8°C 41°F / 5°C 82% 29.95 in
(1014 mb)
Calm - 10SM
21:53
Clear
48°F / 9°C 39°F / 4°C 71% 29.95 in
(1014 mb)
Calm - 10SM
20:53
Partly Cloudy
52°F / 11°C 41°F / 5°C 67% 29.98 in
(1015 mb)
Calm - 10SM
19:53
Clear
57°F / 14°C 43°F / 6°C 59% 29.95 in
(1014 mb)
W 4.6 mph
(W 7 kph)
- 10SM
18:53
Partly Cloudy
63°F / 17°C 41°F / 5°C 45% 29.95 in
(1014 mb)
ENE 4.6 mph
(ENE 7 kph)
- 10SM
17:53
Overcast
66°F / 19°C 41°F / 5°C 40% 29.95 in
(1014 mb)
ENE 4.6 mph
(ENE 7 kph)
- 10SM
16:53
Overcast
66°F / 19°C 39°F / 4°C 37% 29.95 in
(1014 mb)
Variable 3.5 mph
(Variable 6 kph)
- 10SM
15:53
Mostly Cloudy
70°F / 21°C 39°F / 4°C 33% 29.95 in
(1014 mb)
NNW 4.6 mph
(NNW 7 kph)
- 10SM
14:53
Overcast
66°F / 19°C 41°F / 5°C 40% 29.95 in
(1014 mb)
Variable 3.5 mph
(Variable 6 kph)
- 10SM
13:53
Mostly Cloudy
64°F / 18°C 39°F / 4°C 40% 29.98 in
(1015 mb)
ENE 4.6 mph
(ENE 7 kph)
- 10SM
12:53
Partly Cloudy
66°F / 19°C 43°F / 6°C 43% 29.98 in
(1015 mb)
Calm - 10SM
11:53
Clear
64°F / 18°C 41°F / 5°C 43% 29.98 in
(1015 mb)
N 9.2 mph
(N 15 kph)
- 10SM
10:53
Clear
63°F / 17°C 43°F / 6°C 49% 30.01 in
(1016 mb)
Variable 4.6 mph
(Variable 7 kph)
- 10SM
09:53
Overcast
59°F / 15°C 41°F / 5°C 51% 30.01 in
(1016 mb)
NE 6.9 mph
(NE 11 kph)
- 10SM
08:53
Overcast
54°F / 12°C 43°F / 6°C 67% 30.01 in
(1016 mb)
ENE 5.8 mph
(ENE 9 kph)
- 10SM
07:53
Overcast
52°F / 11°C 43°F / 6°C 72% 30.01 in
(1016 mb)
NE 6.9 mph
(NE 11 kph)
- 10SM
06:53
Overcast
48°F / 9°C 43°F / 6°C 82% 30.01 in
(1016 mb)
ENE 5.8 mph
(ENE 9 kph)
- 10SM
05:53
Overcast
48°F / 9°C 43°F / 6°C 82% 30.01 in
(1016 mb)
ENE 5.8 mph
(ENE 9 kph)
- 10SM
04:53
Overcast
46°F / 8°C 41°F / 5°C 82% 29.98 in
(1015 mb)
ENE 5.8 mph
(ENE 9 kph)
- 10SM
03:53
Overcast
45°F / 7°C 39°F / 4°C 81% 29.98 in
(1015 mb)
Calm - 10SM
02:53
Overcast
45°F / 7°C 39°F / 4°C 81% 29.95 in
(1014 mb)
Calm - 10SM
01:53
Overcast
46°F / 8°C 41°F / 5°C 82% 29.95 in
(1014 mb)
Calm - 10SM
00:53
Overcast
46°F / 8°C 39°F / 4°C 76% 29.95 in
(1014 mb)
Calm - 10SM
Time Weather Temperature Dewpoint Humidity Pressure Winds Precip Visibility


Weather for websites

WeatherForYou.com, LLC is not responsible for any damages or problems caused by this service. Current weather conditions are obtained from the closest station including government and personal stations which may have varying degrees of accuracy. Weather forecasts are derived from the NOAA NDFD. Like all things, this site belongs to Jesus Christ... He just trusts us to maintain it. If you have any questions or comments email webmaster@weatherforyou.com

Copyright © 2015, WeatherForYou.com LLC. All rights reserved.